This demonstration page uses our WeatherBlox Daily Observations layout. Learn more.

Left ArrowRight Arrow

53.62937, 11.41316

Hourly Observations for February 10, 2020

Temp ( °F °C ) Dew Point ( °F °C ) Humidity (%) Winds ( mph kmh ) Pressure ( in mb ) Visibility ( mi km ) Precip ( " mm )
6:50 am 06:50 Mostly Cloudy with Rain 45 7 41 5 87 87 W 10 17 28.94 980 6 9 N/A
7:20 am 07:20 Mostly Cloudy with Light Rain 45 7 41 5 87 87 W 18 30 28.94 980 30 48 N/A
7:50 am 07:50 Mostly Cloudy 46 8 41 5 82 82 W 20 31 28.94 980 30 48 N/A
8:20 am 08:20 Partly Cloudy with Showers Nearby 45 7 39 4 81 81 W 14 22 28.97 981 30 48 N/A
8:50 am 08:50 Partly Cloudy 45 7 39 4 81 81 W 20 31 28.97 981 30 48 N/A
9:20 am 09:20 Windy with Rain Showers Likely 45 7 39 4 81 81 WSW 22 35 29.00 982 30 48 N/A
9:50 am 09:50 Partly Cloudy with Showers Nearby 45 7 39 4 81 81 W 21 33 29.03 983 30 48 N/A
10:20 am 10:20 Windy with Rain Showers Likely 45 7 39 4 81 81 W 23 37 29.03 983 30 48 N/A
10:50 am 10:50 Mostly Cloudy 46 8 39 4 76 76 W 17 28 29.06 984 30 48 N/A
11:20 am 11:20 Windy with Rain Showers Likely 45 7 37 3 76 76 W 24 39 29.09 985 30 48 N/A
11:50 am 11:50 Mostly Cloudy with Light Showers 41 5 37 3 87 87 W 17 28 29.12 986 4 6 N/A
12:20 pm 12:20 Mostly Cloudy with Light Showers 41 5 37 3 87 87 W 15 24 29.12 986 30 48 N/A
12:50 pm 12:50 Partly Cloudy 43 6 37 3 81 81 W 18 30 29.12 986 30 48 N/A
1:20 pm 13:20 Partly Cloudy 43 6 37 3 81 81 W 20 31 29.15 987 30 48 N/A
1:50 pm 13:50 Partly Cloudy 43 6 36 2 76 76 W 17 28 29.15 987 30 48 N/A
2:20 pm 14:20 Windy with Rain Showers Likely 45 7 36 2 71 71 W 22 35 29.18 988 30 48 N/A
2:50 pm 14:50 Partly Cloudy 45 7 34 1 66 66 W 20 31 29.18 988 30 48 N/A
3:20 pm 15:20 Partly Cloudy 43 6 36 2 76 76 W 23 37 29.21 989 30 48 N/A
3:50 pm 15:50 Partly Cloudy with Showers Nearby 43 6 34 1 71 71 W 22 35 29.21 989 30 48 N/A
4:20 pm 16:20 Windy with Rain Showers Likely 41 5 36 2 81 81 W 30 48 29.24 990 30 48 N/A
4:50 pm 16:50 Mostly Cloudy with Light Showers 41 5 36 2 81 81 W 17 28 29.27 991 30 48 N/A
5:20 pm 17:20 Mostly Clear 41 5 34 1 76 76 W 20 31 29.27 991 30 48 N/A
5:50 pm 17:50 Partly Cloudy 41 5 34 1 76 76 WSW 22 35 29.27 991 30 48 N/A
6:20 pm 18:20 Mostly Clear 41 5 34 1 76 76 WSW 22 35 29.27 991 30 48 N/A
6:50 pm 18:50 Mostly Clear 41 5 32 0 70 70 WSW 20 31 29.27 991 30 48 N/A
7:20 pm 19:20 Mostly Clear 41 5 32 0 70 70 WSW 20 31 29.24 990 7 11 N/A
7:50 pm 19:50 Mostly Clear 41 5 32 0 70 70 SW 15 24 29.24 990 30 48 N/A

Powered by AerisWeather